Flag for Japan Weather past 2 weeks in Okayama, Japan

Now
30 °F

Chilly.


Feels Like: 25 °F
Forecast: 19 / 44 °F
Wind: 5 mph from Southwest

Location: Takamatsu

Current Time: Dec 19, 2014 at 6:24:29 AM

Latest Report: Dec 19, 2014 at 5:00 AM


Visibility: N/A

Pressure: 30.51 "Hg

Humidity: 80%

Dew point: 25 °F

Location of OkayamaLocation

Historic Weather in Okayama — Graph

°F

Okayama temperature yesterday

Maximum temperature yesterday: 42 °F (at 2:00 PM)
Minimum temperature yesterday: 34 °F (at 6:00 AM)
Average temperature yesterday: 37 °F

Past Weeks' High & Low Weather Summary

 TemperatureHumidityPressure
High54 °F (Dec 9, 2:00 PM)94% (Dec 11, 8:00 AM)30.52 "Hg (Dec 11, 8:00 AM)
Low30 °F (Dec 19, 5:00 AM)36% (Dec 6, 5:00 PM)29.72 "Hg (Dec 16, 3:00 PM)
Average43 °F62%30.15 "Hg
* Reported Dec 4 5:00 AM — Dec 19 5:00 AM, Okayama, Weather by CustomWeather, © 2014

Note: Actual official high and low records may vary slightly from our data, if they occured in-between our weather recording intervals... More about our weather records

Advertising

Okayama weather history for previous 24 hours

 ConditionsComfort  
Time TempWeatherWind HumidityBarometerVisibility
5:00 AM
Dec 19
30 °FChilly.5 mph80%30.51 "HgN/A
4:00 AM31 °FChilly.5 mph79%30.52 "HgN/A
3:00 AM31 °FPassing clouds.5 mph79%30.51 "Hg12 mi
2:00 AM31 °FChilly.5 mph79%30.50 "HgN/A
1:00 AM32 °FChilly.5 mph78%30.50 "HgN/A
12:00 AM32 °FChilly.7 mph76%30.49 "HgN/A
11:00 PM
Dec 18
34 °FChilly.6 mph72%30.49 "HgN/A
10:00 PM36 °FChilly.5 mph66%30.48 "HgN/A
9:00 PM37 °FPassing clouds.6 mph60%30.47 "Hg12 mi
8:00 PM38 °FChilly.6 mph58%30.45 "HgN/A
7:00 PM38 °FChilly.7 mph61%30.42 "HgN/A
6:00 PM39 °FPassing clouds.8 mph61%30.40 "Hg16 mi
5:00 PM39 °FChilly.12 mph56%30.36 "HgN/A
4:00 PM40 °FChilly.13 mph54%30.34 "HgN/A
3:00 PM40 °FPartly sunny.14 mph51%30.32 "Hg16 mi
2:00 PM42 °FQuite cool.14 mph44%30.28 "HgN/A
1:00 PM41 °FQuite cool.12 mph45%30.28 "HgN/A
11:00 AM40 °FChilly.17 mph43%30.29 "HgN/A
10:00 AM38 °FChilly.15 mph48%30.28 "HgN/A
9:00 AM36 °FPassing clouds.14 mph50%30.26 "Hg12 mi
8:00 AM35 °FChilly.17 mph52%30.24 "HgN/A
7:00 AM34 °FChilly.10 mph54%30.21 "HgN/A
6:00 AM34 °FPassing clouds.13 mph55%30.16 "Hg12 mi
Weather by CustomWeather, © 2014

See weather overviewHow to use our weather pages